[Iaude] MPEC B110: 2023 OV [a=2.06,e=0.44,i=32.5,H=18.65]

mpec at marsden.cfa.harvard.edu mpec at marsden.cfa.harvard.edu
Tue Jan 23 09:40:43 EST 2024


M.P.E.C. 2024-B110                             Issued 2024 January 23, 14:39 UT

     The Minor Planet Electronic Circulars contain information on unusual
         minor planets, routine data on comets and natural satellites,
         and occasional editorial announcements.  They are published
    on behalf of Division F of the International Astronomical Union by the
          Minor Planet Center, Smithsonian Astrophysical Observatory,
                          Cambridge, MA 02138, U.S.A.
			  
             Prepared using the Tamkin Foundation Computer Network

                              MPC at CFA.HARVARD.EDU
            URL https://www.minorplanetcenter.net/    ISSN 1523-6714

                                    2023 OV                                     


                           Revision to MPEC 2023-O44                            

Additional Observations:
     K23O00V  C2011 02 14.49741009 50 51.881-13 09 01.82         21.74GVEB110F51
     K23O00V  C2011 02 14.49875009 50 51.712-13 09 02.88         21.32GVEB110F51
     K23O00V  C2011 02 14.51077209 50 50.202-13 09 12.60         21.70GVEB110F51
     K23O00V  C2011 02 14.51209309 50 50.026-13 09 13.88         21.81GVEB110F51
     K23O00V  C2014 03 09.38948109 18 38.728-25 13 10.52         21.03GVEB110F51
     K23O00V  C2014 03 09.40153909 18 37.061-25 13 15.99         20.40GVEB110F51
     K23O00V  C2014 03 21.29853108 53 25.353-26 12 40.28         20.89GVEB110F51
     K23O00V  C2014 03 21.31082908 53 23.957-26 12 41.79         22.25GVEB110F51
     K23O00V KC2017 02 09.43912310 47 07.402-25 50 38.33         21.59GVEB110F51
     K23O00V  C2020 01 01.62264311 26 23.986-13 42 00.39         22.21GVEB110F51
     K23O00V  C2020 01 01.63101311 26 24.223-13 42 12.62         21.45GVEB110F51
     K23O00V  C2020 01 01.63938911 26 24.422-13 42 25.03         22.27GVEB110F51
     K23O00V  C2020 01 01.64776411 26 24.638-13 42 37.69         22.13GVEB110F51
     K23O00V  C2020 01 20.52827 11 30 19.141-22 11 48.04         21.7 wUEB110F51
     K23O00V  C2020 01 20.53853 11 30 19.039-22 12 06.19         21.6 wUEB110F51
     K23O00V  C2020 01 20.54884 11 30 18.931-22 12 24.70         21.7 wUEB110F51
     K23O00V  C2020 01 24.55257111 29 31.633-24 12 04.61         21.44GVEB110F51
     K23O00V  C2020 01 24.56252211 29 31.439-24 12 22.80         21.72GVEB110F51

Observer details:
F51 Pan-STARRS 1, Haleakala.  Observers J. Herman, T. Lowe, P. Minguez, A.
    Schultz, I. Smith, J. Bulger, M. Willman.  Measurers K. Chambers, T. de
    Boer, J. Fairlamb, H. Gao, M. Huber, C.-C. Lin, E. Magnier, Y.
    Ramanjooloo, R. Wainscoat, R. Weryk, S. Chastel, L. Denneau, H.
    Flewelling.  1.8-m Ritchey-Chretien + CCD.

First and last observations above in comparison with prediction:
Residuals in seconds of arc (or two decimals in degrees), reference and Delta-T
110214 F51 0.05- 0.07-    200124 F51 0.01- 0.01-    MPO782821   +0.00 days

Orbital elements:
2023 OV                                                  Earth MOID = 0.2193 AU
Epoch 2023 Sept. 13.0 TT = JDT 2460200.5                Veres                   
M  26.50663              (2000.0)            P               Q                  
n   0.33256625     Peri.  317.74634     +0.02307022     +0.90795883             
a   2.0632440      Node   308.87330     -0.71146008     -0.27912479             
e   0.4405709      Incl.   32.51021     -0.70234772     +0.31257018             
P   2.96           H   18.65          G   0.15           U   0                  
Residuals in seconds of arc
110214 F51  0.0   0.1-    230719 474  0.5-  0.4-    230813 M49  0.0   0.1+
110214 F51  0.0   0.1-    230720 M21  0.1+  0.0     230814 U52  0.0   0.2-
110214 F51  0.0   0.1+    230720 M21  0.3+  0.1-    230814 U52  0.4-  0.9+
110214 F51  0.2-  0.1-    230720 M21  0.0   0.2+    230814 L65  0.6-  0.6-
140309 F51  0.3-  0.1+    230721 W94  0.1-  0.1+    230814 L65  0.9-  0.1+
140309 F51  0.5+  0.2+    230721 W94  0.1-  0.1+    230817 M49  0.1+  0.1-
140321 F51  0.1-  0.2-    230721 W94  0.2-  0.1+    230817 M49  0.3+  0.0
140321 F51  0.4+  0.1+    230721 M49  0.4+  0.1+    230817 M49  0.2+  0.3+
170209 F51  0.3+  0.3+    230721 M49  0.2+  0.1+    230818 W68  0.4+  0.5+
200101 F51  0.0   0.1-    230721 M49  0.0   0.0     230818 W68  0.5+  0.1+
200101 F51  0.3+  0.1+    230722 M22  0.0   0.1+    230818 W68  0.1-  0.6-
200101 F51  0.0   0.0     230722 M22  0.1+  0.1+    230818 W68  0.5+  0.6+
200101 F51  0.0   0.3-    230722 M22  0.2+  0.2+    230818 M45  0.2+  0.6+
200120 F51  0.1+  0.1+    230724 474  0.1+  0.1-    230818 M45  0.1-  0.6+
200120 F51  0.0   0.1+    230724 474  0.2+  0.1-    230819 M45  1.2-  0.4+
200120 F51  0.1-  0.2-    230724 474  0.1+  0.0     230819 M45  1.5-  0.7-
200124 F51  0.1-  0.1+    230724 474  0.0   0.1-    230819 L81  0.6-  0.9-
200124 F51  0.0   0.0     230726 M49  0.4+  0.1+    230819 L81  0.3+  0.4-
230716 M22  0.2+  0.0     230726 M49  0.1+  0.2-    230819 L81  0.4-  0.6-
230716 M22  0.0   0.0     230726 M49  0.1+  0.1+    230820 K74  0.3-  0.0
230716 M22  0.0   0.3-    230727 M49  0.1+  0.0     230820 K74  0.4+  0.5+
230716 M22  0.2+  0.1+    230727 M49  0.1+  0.2+    230820 K87  0.3+  0.2+
230716 M22  0.0   0.1+    230727 M49  0.0   0.4+    230820 Z80  0.9+  0.9-
230716 M22  0.1+  0.1-    230727 M21  0.1+  0.0     230820 K87  0.1+  0.3+
230716 M22  0.3+  0.1+    230727 M21  0.2+  0.0     230820 Z80  0.5-  0.4+
230717 M28  1.3-  0.7+    230727 M21  0.2+  0.0     230821 K74  0.5-  0.2-
230717 M28  1.4-  0.5+    230729 M21  0.2+  0.2+    230821 K74  0.0   0.3-
230717 M28  1.3-  0.5+    230729 M21  0.5+  0.3+    230821 K74  0.5-  0.2-
230717 M28  0.9-  0.2+    230731 M21  0.0   0.1+    230823 K74  0.1-  0.1-
230717 M28  1.3-  0.5+    230731 M21  0.1-  0.3+    230823 K74  0.2+  0.2+
230718 Y05  0.5+  0.3-    230803 Q62  0.1+  0.0     230826 U52  0.8+  1.0-
230718 Y05  0.2+  0.2-    230803 Q62  0.2+  0.3+    230826 U52  0.7+  0.7+
230718 Y05  0.0   0.3-    230803 Q62  0.1+  0.0     230826 M45  0.6-  0.1-
230718 W57  0.6+  1.0+    230804 W88  0.0   0.0     230826 M45  0.3-  0.5+
230718 X93  0.6-  0.3-    230804 W88  0.0   0.6-    230826 M45  0.1-  0.2+
230718 X93  0.9-  0.2-    230804 W88  0.2+  0.1-    230902 204  0.2+  0.1+
230718 474  0.0   0.2-    230804 W68  0.0   0.3+    230902 204  0.1-  0.2+
230718 474  0.0   0.3+    230804 W68  0.3+  0.0     230905 K74  0.5+  0.6+
230718 474  0.0   0.0     230804 W68  0.1-  0.0     230905 K74  0.5+  0.6+
230718 474  0.0   0.0     230804 W68  0.1+  0.1-    230905 K74  0.5+  0.8+
230718 M21  0.4+  0.0     230804 M49  0.1-  0.3+    230905 K74  0.1+  1.0+
230718 M21  0.2+  0.1-    230804 M49  0.1+  0.3+    230905 K74  0.4-  0.7+
230718 M21  0.1+  0.0     230804 M49  0.1+  0.3+    230906 130  0.1-  0.1+
230718 M21  0.3+  0.1-    230811 U52  1.1-  0.5-    230906 130  0.2-  0.2+
230719 474  0.0   0.2+    230811 U52  0.1+  0.6+    230907 G01  0.4-  1.5+
230719 474  0.2+  0.2-    230813 M49  0.1-  0.4-    230907 G01  1.6-  0.4+
230719 474  0.1+  0.2-    230813 M49  0.1-  0.2+    230907 G01  2.4-  0.6-

Ephemeris:
2023 OV                  a,e,i = 2.06, 0.44, 33                  q = 1.1542
Date    TT    R. A. (2000) Decl.     Delta      r    Elong.  Phase     V
2023 12 24    22 09 22.5 +20 32 19   2.0330  1.9934    73.6    28.3    22.9
...
2024 01 08    22 39 03.6 +22 31 14   2.2441  2.0736    67.3    25.9    23.2
...
2024 01 16    22 55 00.7 +23 38 56   2.3549  2.1152    63.9    24.7    23.3
...
2024 01 22    23 07 01.0 +24 31 24   2.4367  2.1457    61.3    23.7    23.4
2024 01 23    23 09 01.2 +24 40 15   2.4502  2.1508    60.9    23.6    23.4
2024 01 24    23 11 01.5 +24 49 09   2.4637  2.1558    60.5    23.4    23.4
...
2024 01 30    23 23 04.0 +25 43 09   2.5437  2.1857    57.9    22.4    23.5
...
2024 02 07    23 39 10.3 +26 56 31   2.6481  2.2247    54.5    21.1    23.5
...
2024 02 22    00 09 31.5 +29 16 56   2.8346  2.2952    48.1    18.7    23.7

A. U. Tomatic                (C) Copyright 2024 MPC           M.P.E.C. 2024-B110





More information about the Iaude mailing list